SCP
0 0 0 0 0 0 0 0 0 0 0 0 0 0 0 0 0 1 1 1 1 1 1 1 1 2 2 3 5 7 7 8 7 6 6 7 7 5 4 3 3 2 1 1
0 0 0 0 0 0 0 0 0 0 0 0 0 0 0 0 0 0 1 1 1 1 1 1 1 2 2 4 5 7 8 9 9 8 8 8 6 4 3 3 2 1 1 1
0 0 0 0 0 0 0 0 0 0 0 0 0 0 0 0 0 0 1 1 1 1 1 1 1 2 3 4 6 8 9 10 10 11 11 8 5 3 2 1 1 0 0 0
0 0 0 0 0 0 0 0 0 0 0 0 0 0 0 0 0 1 1 1 1 1 1 2 2 3 4 5 7 9 10 10 10 11 10 8 5 3 1 0 0 0 0 0
0 0 0 0 0 0 0 0 0 0 0 0 0 0 0 1 1 1 1 1 2 2 2 2 3 3 4 5 7 9 11 10 8 8 7 6 4 2 0 0 0 0 0 0
0 0 0 0 0 0 0 0 0 0 0 0 0 0 0 1 1 1 1 2 2 2 3 3 4 4 4 5 6 8 9 8 5 4 3 3 1 0 0 0 0 0 0 0
0 0 0 0 0 0 0 0 0 0 0 0 0 0 1 2 2 2 2 2 3 3 3 4 4 4 4 5 5 6 6 4 3 1 1 0 0 0 0 0 0 0 0 0
0 0 0 0 0 0 0 0 0 0 0 0 0 0 1 2 2 2 3 3 3 3 3 3 4 4 4 4 3 3 2 1 1 0 0 0 0 0 0 0 0 0 0 0
0 0 0 0 0 0 0 0 0 0 0 0 0 0 1 2 2 2 3 3 3 3 3 3 3 3 3 2 2 1 1 0 0 0 0 0 0 0 0 0 0 0 0 0
0 0 0 0 0 0 0 0 0 0 0 0 0 0 1 1 2 2 3 3 3 2 2 2 2 1 1 1 0 0 0 0 0 0 0 0 0 0 0 0 0 0 0 0
0 0 0 0 0 0 0 0 0 0 0 0 0 0 0 1 2 2 2 2 2 2 1 1 1 0 0 0 0 0 0 0 0 0 0 0 0 0 0 0 0 0 0 0
0 0 0 0 0 0 0 0 0 0 0 0 0 0 1 1 2 2 2 2 2 1 1 0 0 0 0 0 0 0 0 0 0 0 0 0 0 0 0 0 0 0 0 0
0 0 0 0 0 0 0 0 0 0 0 0 0 1 1 2 2 2 2 1 1 0 0 0 0 0 0 0 0 0 0 0 0 0 0 0 0 0 0 0 0 0 0 0
0 0 0 0 0 0 0 0 0 0 0 0 1 1 2 2 2 2 1 1 1 0 0 0 0 0 0 0 0 0 0 0 0 0 0 0 0 0 0 0 0 0 0 0
0 0 0 0 0 0 0 0 0 0 0 0 1 1 2 2 2 2 1 1 1 0 0 0 0 0 0 0 0 0 0 0 0 0 0 0 0 0 0 0 0 0 0 0
0 0 0 0 0 0 0 1 1 0 0 1 1 1 2 2 2 1 1 1 0 0 0 0 0 0 0 0 0 0 0 0 0 0 0 0 0 0 0 0 0 0 0 0
0 0 0 0 0 0 0 0 1 1 1 1 1 1 1 1 1 1 0 0 0 0 0 0 0 0 0 0 0 0 0 0 0 0 0 0 0 0 0 0 0 0 0 0
0 0 0 0 0 0 0 0 0 1 1 1 1 1 1 1 0 0 0 0 0 0 0 0 0 0 0 0 0 0 0 0 0 0 0 0 0 0 0 0 0 0 0 0
0 0 0 0 0 0 0 0 0 0 0 1 1 0 0 0 0 0 0 0 0 0 0 0 0 0 0 0 0 0 0 0 0 0 0 0 0 0 0 0 0 0 0 0
0 0 0 0 0 0 0 0 0 0 0 0 0 0 0 0 0 0 0 0 0 0 0 0 0 0 0 0 0 0 0 0 0 0 0 0 0 0 0 0 0 0 0 0
0 0 0 0 0 0 0 0 0 0 0 0 0 0 0 0 0 0 0 0 0 0 0 0 0 0 0 0 0 0 0 0 0 0 0 0 0 0 0 0 0 0 0 0
0 0 0 0 0 0 0 0 0 0 0 0 0 0 0 0 0 0 0 0 0 0 0 0 0 0 0 0 0 0 0 0 0 0 0 0 0 0 0 0 0 0 0 0
0 0 0 0 0 0 0 0 0 0 0 0 0 0 0 0 0 0 0 0 0 0 0 0 0 0 0 0 0 0 0 0 0 0 0 0 0 0 0 0 0 0 0 0
0 0 0 0 0 0 0 0 0 0 0 0 0 0 0 0 0 0 0 0 0 0 0 0 0 0 0 0 0 0 0 0 0 0 0 0 0 0 0 0 0 0 0 0
0 0 0 0 0 0 0 0 0 0 0 0 0 0 0 0 0 0 0 0 0 0 0 0 0 0 0 0 0 0 0 0 0 0 0 0 0 0 0 0 0 0 0 0
0 0 0 0 0 0 0 0 0 0 0 0 0 0 0 0 0 0 0 0 0 0 0 0 0 0 0 0 0 0 0 0 0 0 0 0 0 0 0 0 0 0 0 0
Wind_Speed
5 5 5 8 9 7 3 2 3 5 4 2 5 7 10 6 5 8 9 10 13 18 15 9 10 9 9 10 11 11 11 9 9 7 6 5 3 2 2 2 3 3 5 6
4 4 9 7 6 4 4 3 4 6 2 1 4 8 9 5 6 8 10 12 13 13 9 9 9 8 9 10 9 9 9 9 9 7 6 4 4 3 3 3 4 4 5 6
8 6 6 6 5 5 4 5 5 6 6 4 3 8 8 6 3 4 6 8 8 11 11 8 7 7 7 7 8 8 8 8 8 8 7 6 5 3 3 3 3 4 5 6
6 7 4 5 6 7 5 7 6 3 1 4 2 5 10 6 7 6 6 5 6 6 7 6 5 5 4 4 6 7 8 8 8 8 8 8 5 3 3 3 3 5 6 6
7 6 7 7 8 9 8 4 5 3 3 2 2 3 10 6 6 6 5 4 4 3 2 2 3 5 7 7 8 9 10 10 8 8 8 7 6 5 5 5 6 5 5 6
6 4 7 9 7 8 4 4 5 5 4 2 5 6 8 4 5 7 6 6 5 4 6 8 9 11 11 10 10 10 11 10 9 9 7 7 8 9 9 8 6 5 4 4
3 3 4 4 2 2 5 5 4 4 2 7 3 4 7 4 5 4 5 6 7 8 10 11 12 12 12 12 11 11 12 10 9 9 8 8 7 8 9 8 7 6 4 3
5 6 6 7 8 7 6 10 8 6 5 5 1 5 3 3 6 7 8 9 11 12 12 12 12 11 11 11 11 11 11 10 8 8 9 8 8 6 5 7 6 5 4 4
7 7 6 7 8 11 7 7 8 7 2 1 4 3 1 4 8 9 10 11 12 12 13 13 12 12 12 12 11 11 11 10 9 9 10 10 8 7 8 7 7 5 5 5
7 4 5 3 3 2 6 8 6 7 8 5 4 2 2 3 4 6 9 10 10 11 12 13 12 12 12 11 11 11 12 11 11 10 9 9 8 8 8 8 8 7 6 6
4 5 4 3 2 3 4 4 5 4 5 8 5 5 1 1 2 5 8 9 10 11 11 11 11 11 11 11 11 11 11 11 11 10 10 10 9 9 9 9 8 7 7 6
1 4 2 2 1 0 4 4 6 5 4 4 5 3 3 1 5 8 9 9 10 10 10 11 11 11 11 11 11 11 10 11 10 10 10 10 9 10 10 9 8 7 7 6
2 4 3 3 4 6 5 3 3 5 5 3 4 2 2 5 8 9 9 9 9 10 10 10 10 10 10 10 10 10 10 10 9 9 10 10 10 10 9 8 7 7 7 6
3 5 3 4 3 0 2 4 2 5 4 2 2 5 4 6 8 8 8 9 9 9 9 9 9 9 9 9 9 9 9 9 9 9 10 10 9 8 7 7 6 6 6 6
5 5 3 3 4 3 4 5 4 3 4 4 4 5 4 5 7 7 8 8 9 8 8 8 8 7 8 8 8 8 8 8 8 9 9 8 7 7 7 7 6 6 6 6
6 3 3 4 4 4 5 7 5 4 3 6 8 4 4 6 8 8 7 8 8 7 7 7 7 7 7 7 7 8 7 7 7 9 8 7 7 7 7 6 6 6 6 5
4 3 3 2 3 3 3 5 4 4 3 1 4 5 7 7 8 6 6 6 7 7 7 7 7 7 7 6 7 7 6 6 8 8 7 7 6 7 6 6 6 6 5 4
1 2 2 0 1 2 1 2 5 6 6 6 7 8 8 9 8 8 7 7 8 8 7 7 7 7 6 6 6 6 6 7 7 6 6 6 6 6 6 6 5 4 3 4
2 4 3 2 2 1 2 1 2 2 3 4 6 8 8 8 6 6 8 8 8 8 7 7 7 7 6 6 5 6 6 6 6 6 5 5 5 5 5 5 4 3 3 3
5 3 4 3 3 4 2 2 3 3 1 0 3 5 5 4 3 2 5 8 9 8 7 7 7 7 7 5 5 7 6 6 5 4 4 4 4 5 4 4 3 3 2 3
5 5 3 2 2 2 3 6 2 3 3 2 3 3 3 2 3 7 8 8 9 8 8 7 7 6 5 4 5 6 5 4 3 4 4 4 4 3 3 3 2 3 3 3
1 1 1 1 1 3 6 5 1 0 2 2 2 3 5 7 9 9 9 9 8 8 7 7 6 5 4 4 5 5 4 2 3 4 4 3 2 2 2 3 3 3 3 3
1 2 2 2 2 1 3 3 2 1 2 2 2 4 9 9 9 9 8 8 8 7 6 5 5 5 4 3 4 4 1 2 3 3 2 2 2 2 2 2 2 2 2 2
1 1 2 1 2 1 2 2 3 3 2 2 3 6 7 9 10 10 8 7 6 6 5 4 5 5 3 3 2 2 1 2 3 2 1 0 1 2 2 1 1 1 1 2
3 1 1 1 1 1 1 2 2 4 4 5 6 6 8 11 11 10 8 7 6 5 4 4 4 3 2 2 2 1 1 2 2 1 0 0 1 1 1 1 1 1 2 2
3 4 4 4 4 4 2 2 2 4 4 6 8 9 9 10 11 9 7 5 5 4 3 3 3 3 2 2 2 2 1 2 2 0 0 0 0 0 1 1 2 3 3 5
Wind_Direction
139 116 185 201 189 189 196 215 262 267 278 316 292 287 287 276 244 245 237 224 221 226 228 213 208 199 191 190 190 188 184 172 159 158 153 147 144 129 97 102 110 132 133 131
89 217 213 193 183 185 204 245 276 290 325 277 296 291 284 269 237 234 236 234 230 237 234 217 211 200 197 192 186 181 178 166 162 158 145 130 121 110 89 72 80 97 114 121
171 220 193 165 167 178 201 205 235 264 333 347 305 308 305 300 299 287 261 248 243 234 230 224 213 209 197 183 174 170 162 152 144 133 115 103 89 82 96 90 83 80 91 106
202 228 163 166 189 172 231 222 213 238 348 301 20 304 295 298 316 305 290 280 265 249 233 213 192 188 172 152 138 132 129 125 123 123 126 129 137 141 133 119 105 95 94 102
217 194 178 194 207 178 213 211 195 209 190 270 272 200 281 317 313 311 325 323 308 280 221 165 130 110 96 98 102 105 106 104 107 112 126 123 119 113 110 106 102 92 86 91
215 203 184 200 211 189 180 75 50 51 87 247 234 170 271 295 303 317 343 2 5 27 71 82 85 89 88 89 92 98 101 95 92 94 101 108 118 127 130 128 122 108 96 91
253 256 222 178 149 135 129 104 25 357 29 242 230 168 244 312 348 346 3 30 48 66 76 81 84 86 86 86 88 92 95 92 91 96 99 106 122 134 138 135 130 125 115 103
200 262 228 189 181 186 176 149 163 195 211 257 230 211 242 35 43 53 59 64 67 70 72 75 77 79 81 81 83 87 91 92 93 99 101 105 112 114 116 117 120 118 112 106
186 242 260 216 191 167 163 190 180 150 171 237 271 267 329 46 55 61 69 71 67 68 70 70 69 70 72 72 71 76 80 75 71 76 83 86 91 99 103 102 99 98 99 102
169 230 277 254 115 136 161 149 110 135 156 208 259 255 251 352 54 71 76 74 71 69 68 66 64 65 65 67 68 67 74 76 74 75 79 85 83 88 93 94 92 92 88 89
157 189 293 20 127 176 113 120 127 137 163 163 206 252 303 237 133 102 89 80 73 69 68 67 65 65 66 65 66 68 70 72 72 75 79 82 81 83 84 84 84 84 82 84
49 138 227 256 292 73 123 146 146 152 200 176 167 222 352 96 111 110 100 88 79 73 70 69 68 68 67 67 67 68 69 71 73 76 78 77 76 76 77 77 76 79 80 79
32 90 82 11 353 13 53 43 121 120 110 132 150 194 51 90 94 96 96 91 84 77 72 69 66 65 65 67 70 71 73 75 76 77 78 76 74 74 73 72 72 74 77 77
90 69 116 170 218 314 39 12 61 106 114 142 169 146 123 106 100 92 91 89 82 74 70 68 65 65 66 68 72 75 72 75 79 79 78 76 74 76 76 74 72 72 77 80
56 67 47 43 30 66 58 21 21 79 140 150 159 140 131 114 109 100 97 95 87 78 71 69 71 72 73 73 71 70 70 71 79 81 79 78 76 76 75 72 69 68 68 74
32 64 38 21 26 54 53 18 23 46 71 119 125 113 94 91 94 94 95 100 95 89 82 79 80 79 77 78 77 74 71 70 78 81 79 79 78 76 73 71 67 66 62 60
4 61 68 319 332 29 19 356 18 53 14 130 154 141 128 103 88 79 82 95 98 95 89 86 83 80 78 77 81 80 76 74 76 78 77 77 79 76 69 71 66 61 55 54
154 87 105 121 34 221 195 44 72 84 46 52 95 103 104 106 93 67 64 88 94 95 93 91 91 88 82 81 81 82 77 75 76 78 79 80 80 78 70 66 59 50 44 42
161 141 123 119 135 155 195 30 5 86 54 36 106 112 112 119 94 61 55 75 86 90 94 92 92 91 86 79 82 84 76 73 75 77 79 81 84 81 69 60 48 37 38 32
44 74 110 128 161 218 214 2 345 99 144 84 114 128 132 121 107 109 90 89 90 90 91 92 90 86 80 72 78 82 77 75 75 79 84 81 80 82 75 64 48 34 41 30
9 24 63 122 190 262 2 317 331 170 231 133 130 138 136 95 100 117 108 95 93 93 92 91 87 81 74 74 81 81 77 71 70 82 84 77 73 82 83 69 53 49 45 31
19 38 43 89 202 258 349 0 84 238 6 63 100 110 108 106 108 111 109 105 103 99 92 91 88 78 65 74 89 88 79 63 72 79 78 70 56 60 91 87 66 50 41 28
154 191 185 187 212 299 9 32 5 8 47 35 91 119 129 127 124 119 113 109 104 101 94 87 88 77 57 62 93 100 92 92 92 84 78 69 59 49 74 95 77 47 31 21
314 131 135 189 217 135 45 26 17 28 41 59 116 129 133 131 127 121 116 111 103 96 91 88 86 78 55 48 73 110 103 110 107 100 86 87 67 46 53 68 80 51 1 357
255 152 140 236 200 130 73 48 43 56 67 81 92 105 124 126 124 121 116 109 104 96 88 87 91 91 73 59 56 59 112 130 127 130 299 344 35 62 46 21 302 294 264 261
223 180 179 230 211 171 162 115 96 87 84 100 105 102 107 116 118 116 110 106 106 103 95 93 95 95 80 71 51 28 75 134 138 136 318 331 3 24 31 1 344 330 317 323